[[{"header":{"parameterUnit":"m.s-1","parameterCategory":1,"la1":30.2991,"la2":30.254,"lo1":-89.0895,"lo2":-89.0444,"dy":0.0017,"dx":0.0017,"nx":28,"ny":28,"refTime":"2025-05-29T09:00:00:Z","depth":0,"parameterNumber":2,"parameterNumberName":"U-component_of_WINDS"},"data":[0,0,0,0,0,0,0,0,0,0,0,0,0,0,0,0,0,0,0,0,0,0,0,0,0,0,0,0,0,0,0,0,0,0,0,0,0,0,0,0,0,0,0,0,0,0,0,0,0,0,0,0,0,0,0,0,0,0,3.6444,3.6445,0,3.6485,3.6486,3.6486,3.6451,3.6449,3.6448,3.6446,3.6492,3.6495,3.6497,0,0,0,0,0,0,0,0,0,0,0,0,0,3.634,3.6342,3.6444,3.6445,3.6445,3.6485,3.6486,3.6486,3.6451,3.6449,3.6447,3.6446,3.6492,3.6495,3.6498,0,0,0,0,0,0,0,0,0,0,0,0,0,3.6384,3.6343,3.6444,3.6432,3.6432,3.6485,3.6486,3.6486,3.6451,3.6449,3.6447,3.6445,3.6491,3.6494,3.6498,3.6566,0,0,3.651,3.6512,0,0,0,0,0,0,0,0,3.6381,3.6388,3.6434,3.6433,3.6433,3.646,3.6466,3.6513,3.6452,3.6444,3.6446,3.6444,3.6484,3.6488,3.6501,3.6568,3.657,3.651,3.6513,3.6514,3.6516,0,0,0,0,0,0,0,3.6378,3.6386,3.646,3.6434,3.6434,3.6427,3.643,3.6475,3.6476,3.6445,3.6442,3.6447,3.6483,3.6497,3.6502,3.6571,3.651,3.6514,3.6516,3.6518,3.6699,3.6702,0,0,0,0,0,0,3.6376,3.6384,3.6459,3.6462,3.6401,3.643,3.6434,3.6454,3.6475,3.6476,3.6449,3.6445,3.6492,3.6497,3.6503,3.6586,3.6514,3.6518,3.652,3.6697,3.67,3.6703,0,0,0,0,0,0,3.6374,3.6383,3.6458,3.6422,3.6431,3.6434,3.6456,3.6456,3.647,3.6479,3.6479,3.6463,3.649,3.6498,3.6551,3.6587,3.652,3.6523,3.6694,3.6698,3.6701,3.6752,0,0,0,0,0,0,3.6371,3.6383,3.6407,3.6423,3.6433,3.6504,3.6459,3.6458,3.6476,3.6472,3.6492,3.6493,3.6489,3.6546,3.6555,3.6592,3.6526,3.6691,3.6696,3.67,3.6748,3.6757,3.6766,0,0,0,0,0,3.6368,3.6421,3.6409,3.6418,3.6464,3.6506,3.6512,3.6505,3.6479,3.6505,3.6511,3.6492,3.6581,3.6551,3.6562,3.66,3.6689,3.6694,3.67,3.6743,3.6756,3.6766,0,0,0,0,0,0,3.6411,3.6422,3.641,3.6469,3.6486,3.65,3.6532,3.6517,3.6544,3.6539,3.653,3.6535,3.6592,3.6601,3.6567,3.6668,3.6631,3.6639,3.6661,3.6672,3.6681,3.6679,3.653,0,0,0,0,0,3.6427,3.6458,3.6467,3.6519,3.6528,3.6529,3.6547,3.654,3.6559,3.6566,3.6576,3.6596,3.6629,3.6651,3.6681,3.6748,3.6753,3.678,3.6789,3.6796,3.6804,3.6843,3.6855,3.6721,3.6721,3.6721,0,0,3.6461,3.6471,3.6492,3.6528,3.6541,3.6576,3.6535,3.6574,3.66,3.6572,3.6624,3.6632,3.6654,3.6715,3.6742,3.6724,3.6842,3.6803,3.6809,3.6813,3.685,3.6863,3.6874,3.6725,3.6724,3.6724,0,0,3.6542,3.6552,3.6597,3.661,3.663,3.663,3.6641,3.6657,3.6661,3.6712,3.6692,3.6724,3.678,3.6797,3.6813,3.6901,3.6886,3.6911,3.696,3.6998,3.7009,3.7018,3.7052,3.7064,3.6918,3.6918,3.6919,0,3.6583,3.6633,3.6622,3.6662,3.668,3.6655,3.6702,3.6716,3.6745,3.6758,3.6737,3.6808,3.682,3.6886,3.6908,3.6921,3.6935,3.691,3.7007,3.7017,3.7026,3.7058,3.7071,3.6922,3.6921,3.6921,3.6921,0,3.6683,3.6719,3.6753,3.6781,3.6802,3.6845,3.6843,3.6866,3.6857,3.686,3.6913,3.6928,3.6962,3.6976,3.6968,3.7042,3.703,3.7008,3.6971,3.7042,3.7072,3.7084,3.6926,3.6925,3.6924,3.6923,0,0,3.6794,3.6815,3.6828,3.6842,3.6862,3.689,3.6933,3.6964,3.6986,3.7006,3.7044,3.7092,3.7072,3.709,3.7084,3.7117,3.7189,3.7091,3.7091,3.7111,3.7274,3.7293,3.7307,3.7178,3.718,3.7182,3.7273,0,3.6878,3.6951,3.6943,3.7014,3.7048,3.7025,3.7062,3.708,3.7084,3.7115,3.7119,3.7154,3.7124,3.7135,3.7166,3.7173,3.7222,3.7166,3.7216,3.7217,3.7213,3.7322,3.7342,3.7428,3.7285,3.7287,3.7288,0,3.6986,3.701,3.7084,3.71,3.7114,3.7148,3.7178,3.7206,3.7226,3.7227,3.7248,3.7236,3.7281,3.7241,3.7305,3.7267,3.7287,3.7293,3.7297,3.7303,3.7259,3.7335,3.7454,3.7468,3.7306,3.7305,3.7304,0,3.7063,3.7114,3.7165,3.7177,3.7196,3.7221,3.723,3.7248,3.7268,3.7294,3.7308,3.7339,3.7357,3.7382,3.738,3.7351,3.7446,3.7405,3.745,3.7451,3.7474,3.7473,3.7601,3.7482,3.7481,3.7481,3.7481,0,3.7159,3.7206,3.72,3.7232,3.7285,3.7275,3.7328,3.7335,3.7351,3.7385,3.7366,3.7399,3.7393,3.7427,3.7425,3.748,3.7487,3.7491,3.7491,3.7495,3.7495,3.7509,3.7504,3.7485,3.7484,3.7483,3.7483,0,3.7255,3.7252,3.7308,3.7321,3.7326,3.7364,3.7377,3.7408,3.741,3.7454,3.7463,3.7467,3.7506,3.7505,3.7549,3.7548,3.7617,3.7608,3.761,3.7609,3.7655,3.7652,3.78,3.782,3.7685,3.7686,3.7687,0,3.7318,3.7354,3.7371,3.7392,3.7403,3.7437,3.7457,3.7449,3.7472,3.7497,3.7526,3.7563,3.7592,3.7655,3.7663,3.7697,3.7691,3.774,3.7696,3.7699,3.7695,3.7694,3.7699,3.775,3.7751,3.7753,3.7754,0,3.7431,3.7428,3.7458,3.7487,3.7512,3.7535,3.7556,3.7575,3.7569,3.7596,3.7634,3.7657,3.7702,3.7739,3.7772,3.7784,3.777,3.7767,3.778,3.7786,3.7786,3.7789,3.7636,3.7764,3.7763,3.7762,3.7762,3.7761,3.7515,3.7547,3.7564,3.7598,3.7612,3.7633,3.7663,3.7669,3.77,3.7735,3.7728,3.7773,3.7793,3.7836,3.785,3.7886,3.7869,3.7886,3.7892,3.7897,3.7903,3.7778,3.7891,3.7891,3.7891,3.789,3.789,0,3.763,3.764,3.7671,3.7701,3.7728,3.7709,3.7732,3.7756,3.7795,3.7814,3.7843,3.7888,3.7925,3.7935,3.7971,3.7997,3.7992,3.8007,3.8007,3.8011,3.7915,3.7902,3.8012,3.8012,3.8012,3.8012,3.8011,3.8011,3.7694,3.7746,3.7746,3.7806,3.7816,3.7858,3.7873,3.7892,3.7908,3.7959,3.7989,3.7994,3.8011,3.8047,3.8081,3.8083,3.8099,3.8118,3.8118,3.8029,3.8017,3.8005,3.7993,3.812,3.812,3.821,3.8211,3.8212]},{"header":{"parameterUnit":"m.s-1","parameterCategory":1,"la1":30.2991,"la2":30.254,"lo1":-89.0895,"lo2":-89.0444,"dy":0.0017,"dx":0.0017,"nx":28,"ny":28,"refTime":"2025-05-29T09:00:00:Z","depth":0,"parameterNumber":3,"parameterNumberName":"V-component_of_WINDS"},"data":[0,0,0,0,0,0,0,0,0,0,0,0,0,0,0,0,0,0,0,0,0,0,0,0,0,0,0,0,0,0,0,0,0,0,0,0,0,0,0,0,0,0,0,0,0,0,0,0,0,0,0,0,0,0,0,0,0,0,0.4287,0.4288,0,0.4452,0.4454,0.4456,0.448,0.4479,0.4477,0.4476,0.4648,0.4654,0.466,0,0,0,0,0,0,0,0,0,0,0,0,0,0.3992,0.3997,0.4286,0.4288,0.4291,0.4452,0.4454,0.4457,0.448,0.4479,0.4477,0.4475,0.4646,0.4653,0.4661,0,0,0,0,0,0,0,0,0,0,0,0,0,0.4135,0.3999,0.4286,0.4322,0.4327,0.4452,0.4454,0.4457,0.4481,0.4479,0.4476,0.4474,0.4644,0.4653,0.4662,0.4763,0,0,0.4689,0.4693,0,0,0,0,0,0,0,0,0.4127,0.4146,0.4315,0.432,0.4325,0.4443,0.4414,0.456,0.4481,0.4422,0.4476,0.4473,0.4582,0.4596,0.4632,0.4771,0.4779,0.469,0.4696,0.4699,0.4702,0,0,0,0,0,0,0,0.4117,0.4139,0.4352,0.4317,0.4324,0.433,0.4348,0.4442,0.4513,0.4427,0.443,0.4449,0.4585,0.4624,0.4637,0.4781,0.469,0.4698,0.4703,0.4707,0.5009,0.5012,0,0,0,0,0,0,0.41,0.4131,0.4347,0.4357,0.4218,0.4337,0.4357,0.4408,0.4512,0.4526,0.445,0.4449,0.4609,0.4626,0.4643,0.4767,0.4699,0.4708,0.4713,0.5007,0.501,0.5013,0,0,0,0,0,0,0.4094,0.4119,0.434,0.4244,0.4273,0.4345,0.4401,0.4412,0.4451,0.453,0.4543,0.4477,0.4608,0.463,0.4732,0.4773,0.4712,0.472,0.5004,0.5008,0.5011,0.5016,0,0,0,0,0,0,0.4085,0.4117,0.4156,0.4245,0.4278,0.4427,0.4404,0.4417,0.4466,0.4466,0.4558,0.4571,0.4608,0.4719,0.4741,0.4784,0.4727,0.5,0.5005,0.501,0.5013,0.502,0.5026,0,0,0,0,0,0.4075,0.4152,0.4158,0.4184,0.4328,0.4429,0.4448,0.4488,0.4469,0.4509,0.4559,0.4568,0.4765,0.4729,0.4755,0.4801,0.4998,0.5004,0.501,0.501,0.5019,0.5026,0,0,0,0,0,0,0.4068,0.4165,0.4172,0.428,0.4346,0.4433,0.4485,0.4496,0.457,0.4567,0.4614,0.4635,0.4734,0.4778,0.4736,0.4903,0.488,0.4891,0.4871,0.488,0.4887,0.4874,0.4735,0,0,0,0,0,0.4078,0.4151,0.4232,0.432,0.4353,0.4413,0.4458,0.4483,0.4554,0.4582,0.464,0.4708,0.4785,0.4835,0.4911,0.5019,0.5039,0.5064,0.507,0.5075,0.5084,0.5143,0.5154,0.5032,0.5032,0.5032,0,0,0.4102,0.4164,0.4207,0.432,0.4374,0.4448,0.4436,0.4516,0.4572,0.4595,0.4694,0.4738,0.4818,0.4923,0.4972,0.4963,0.5122,0.5083,0.5086,0.5093,0.515,0.5162,0.5172,0.5036,0.5035,0.5035,0,0,0.4183,0.4237,0.4315,0.4369,0.445,0.4489,0.4507,0.4592,0.4622,0.4722,0.474,0.4807,0.494,0.4995,0.504,0.5139,0.5149,0.5163,0.5197,0.5254,0.5263,0.5272,0.5306,0.5317,0.5172,0.5172,0.5172,0,0.4202,0.4314,0.4354,0.4433,0.4481,0.4503,0.4582,0.4633,0.4735,0.4768,0.4755,0.492,0.4976,0.5093,0.5116,0.5153,0.5175,0.5152,0.5258,0.5268,0.5276,0.5309,0.5322,0.5173,0.5172,0.5172,0.5172,0,0.4333,0.4411,0.4464,0.456,0.4615,0.4693,0.4745,0.4796,0.4815,0.4855,0.4956,0.5023,0.5111,0.5141,0.5162,0.5261,0.5252,0.5249,0.5226,0.5288,0.532,0.5333,0.5174,0.5174,0.5173,0.5173,0,0,0.4415,0.453,0.4549,0.4592,0.4682,0.4743,0.4822,0.4906,0.4948,0.5018,0.5084,0.5195,0.5191,0.5242,0.527,0.5319,0.5391,0.5309,0.5312,0.5321,0.5502,0.5504,0.5518,0.5398,0.5401,0.5403,0.5495,0,0.4505,0.4646,0.4683,0.4802,0.4873,0.4894,0.4963,0.5025,0.5065,0.5131,0.5175,0.5252,0.5242,0.5273,0.5323,0.5372,0.5428,0.5366,0.5461,0.5463,0.5439,0.5534,0.5537,0.562,0.5508,0.551,0.5511,0,0.463,0.4699,0.4824,0.4903,0.4934,0.4995,0.5075,0.5138,0.5209,0.5234,0.529,0.5312,0.5395,0.5368,0.5482,0.5438,0.5479,0.5509,0.5513,0.5523,0.5491,0.5546,0.5648,0.566,0.5532,0.553,0.5529,0,0.4674,0.48,0.489,0.4927,0.5021,0.5063,0.5104,0.5173,0.5221,0.5291,0.5322,0.5401,0.5444,0.5505,0.5547,0.5524,0.5657,0.5634,0.568,0.5679,0.5707,0.5704,0.5816,0.5735,0.5735,0.5734,0.5734,0,0.4771,0.4846,0.4911,0.4967,0.5052,0.5094,0.5178,0.522,0.528,0.5344,0.5368,0.5428,0.5481,0.5548,0.5582,0.567,0.569,0.5712,0.572,0.5709,0.5706,0.5736,0.5731,0.5738,0.5737,0.5736,0.5736,0,0.4835,0.4882,0.4982,0.5062,0.5084,0.5143,0.5212,0.5267,0.5306,0.5387,0.5409,0.5471,0.555,0.5599,0.57,0.5723,0.582,0.5826,0.5795,0.5799,0.5841,0.5836,0.5976,0.5996,0.5902,0.5903,0.5903,0,0.4893,0.4951,0.5037,0.5081,0.5122,0.5193,0.5242,0.5285,0.5334,0.5418,0.5463,0.5543,0.561,0.5737,0.5791,0.5868,0.5876,0.5919,0.5888,0.5874,0.5875,0.587,0.5876,0.5924,0.5925,0.5926,0.5927,0,0.499,0.501,0.5078,0.5154,0.521,0.5273,0.5335,0.537,0.5423,0.5478,0.5558,0.561,0.5712,0.5792,0.5873,0.5916,0.593,0.5936,0.595,0.594,0.5919,0.5929,0.5808,0.5933,0.5932,0.5932,0.5931,0.5931,0.5052,0.5104,0.5172,0.5247,0.5297,0.5354,0.5409,0.5454,0.5522,0.5607,0.5629,0.5714,0.5782,0.5892,0.5937,0.6003,0.5996,0.6018,0.6023,0.6027,0.6027,0.5909,0.6018,0.6018,0.6018,0.6018,0.6018,0,0.5149,0.5193,0.5261,0.5346,0.5404,0.5411,0.548,0.5528,0.5602,0.5664,0.5728,0.582,0.5897,0.5956,0.6035,0.6077,0.6085,0.6096,0.6093,0.6102,0.603,0.6009,0.6088,0.6088,0.6088,0.6088,0.6088,0.6087,0.5206,0.5294,0.5321,0.5433,0.5477,0.5559,0.5597,0.565,0.5699,0.58,0.5863,0.5901,0.5962,0.6044,0.6115,0.613,0.6158,0.6167,0.6184,0.6115,0.6107,0.61,0.608,0.6173,0.6173,0.625,0.6251,0.6251]}]]